Time,TemperatureF,DewpointF,PressureIn,WindDirection,WindDirectionDegrees,WindSpeedMPH,WindSpeedGustMPH,Humidity,HourlyPrecipIn,Conditions,Clouds,dailyrainin,SoftwareType,DateUTC
2013-11-19 00:02:00,28.3,23.8,30.28,WNW,302,3.0,4.0,83,0.00,,,0.00,VWS V13.01,2013-11-19 06:02:00,
2013-11-19 00:07:00,28.3,23.8,30.28,NNW,342,1.0,4.0,83,0.00,,,0.00,VWS V13.01,2013-11-19 06:07:00,
2013-11-19 00:12:00,28.2,23.7,30.28,NW,310,3.0,5.0,83,0.00,,,0.00,VWS V13.01,2013-11-19 06:12:00,
2013-11-19 00:17:00,28.3,23.5,30.28,NNW,333,1.0,5.0,82,0.00,,,0.00,VWS V13.01,2013-11-19 06:17:00,
2013-11-19 00:22:00,28.2,23.4,30.28,NNW,327,0.0,5.0,82,0.00,,,0.00,VWS V13.01,2013-11-19 06:22:00,
2013-11-19 00:27:00,28.2,23.4,30.28,NE,35,0.0,5.0,82,0.00,,,0.00,VWS V13.01,2013-11-19 06:27:00,
2013-11-19 00:32:00,28.0,23.5,30.28,NW,310,1.0,4.0,83,0.00,,,0.00,VWS V13.01,2013-11-19 06:32:00,
2013-11-19 00:37:00,28.0,23.5,30.28,NNW,347,0.0,4.0,83,0.00,,,0.00,VWS V13.01,2013-11-19 06:37:00,
2013-11-19 00:42:00,27.9,23.1,30.29,NW,315,1.0,4.0,82,0.00,,,0.00,VWS V13.01,2013-11-19 06:42:00,
2013-11-19 00:47:00,27.9,23.1,30.29,NW,307,0.0,4.0,82,0.00,,,0.00,VWS V13.01,2013-11-19 06:47:00,
2013-11-19 00:52:00,27.8,23.0,30.30,WNW,288,4.0,4.0,82,0.00,,,0.00,VWS V13.01,2013-11-19 06:52:00,
2013-11-19 00:57:00,27.8,23.3,30.30,WNW,295,0.0,4.0,83,0.00,,,0.00,VWS V13.01,2013-11-19 06:57:00,
2013-11-19 01:02:00,27.6,23.1,30.30,WNW,300,2.0,2.0,83,0.00,,,0.00,VWS V13.01,2013-11-19 07:02:00,
2013-11-19 01:07:00,27.5,23.0,30.30,WNW,298,0.0,3.0,83,0.00,,,0.00,VWS V13.01,2013-11-19 07:07:00,
2013-11-19 01:12:00,27.4,22.9,30.30,West,280,0.0,3.0,83,0.00,,,0.00,VWS V13.01,2013-11-19 07:12:00,
2013-11-19 01:17:00,27.2,23.0,30.30,West,279,0.0,3.0,84,0.00,,,0.00,VWS V13.01,2013-11-19 07:17:00,
2013-11-19 01:22:00,26.8,22.6,30.30,West,280,0.0,3.0,84,0.00,,,0.00,VWS V13.01,2013-11-19 07:22:00,
2013-11-19 01:27:00,26.4,22.5,30.30,West,280,0.0,3.0,85,0.00,,,0.00,VWS V13.01,2013-11-19 07:27:00,
2013-11-19 01:32:00,26.1,22.5,30.30,NNE,12,0.0,1.0,86,0.00,,,0.00,VWS V13.01,2013-11-19 07:32:00,
2013-11-19 01:37:00,25.9,22.3,30.30,North,11,0.0,1.0,86,0.00,,,0.00,VWS V13.01,2013-11-19 07:37:00,
2013-11-19 01:42:00,25.7,22.4,30.30,NNE,12,0.0,1.0,87,0.00,,,0.00,VWS V13.01,2013-11-19 07:42:00,
2013-11-19 01:47:00,25.6,22.3,30.30,North,11,0.0,1.0,87,0.00,,,0.00,VWS V13.01,2013-11-19 07:47:00,
2013-11-19 01:52:00,25.2,21.9,30.31,North,11,0.0,1.0,87,0.00,,,0.00,VWS V13.01,2013-11-19 07:52:00,
2013-11-19 01:57:00,24.9,21.9,30.31,SW,226,0.0,1.0,88,0.00,,,0.00,VWS V13.01,2013-11-19 07:57:00,
2013-11-19 02:02:00,25.2,22.1,30.32,SW,219,0.0,1.0,88,0.00,,,0.00,VWS V13.01,2013-11-19 08:02:00,
2013-11-19 02:07:00,25.0,22.0,30.32,SW,218,0.0,1.0,88,0.00,,,0.00,VWS V13.01,2013-11-19 08:07:00,
2013-11-19 02:12:00,24.8,22.0,30.32,SW,219,0.0,1.0,89,0.00,,,0.00,VWS V13.01,2013-11-19 08:12:00,
2013-11-19 02:17:00,24.7,21.7,30.32,SW,218,0.0,1.0,88,0.00,,,0.00,VWS V13.01,2013-11-19 08:17:00,
2013-11-19 02:22:00,24.5,21.7,30.32,SW,218,0.0,1.0,89,0.00,,,0.00,VWS V13.01,2013-11-19 08:22:00,
2013-11-19 02:27:00,24.3,21.5,30.32,SW,218,0.0,1.0,89,0.00,,,0.00,VWS V13.01,2013-11-19 08:27:00,
2013-11-19 02:32:00,23.8,21.0,30.32,SW,218,0.0,0.0,89,0.00,,,0.00,VWS V13.01,2013-11-19 08:32:00,
2013-11-19 02:37:00,23.8,21.6,30.33,SW,218,0.0,1.0,91,0.00,,,0.00,VWS V13.01,2013-11-19 08:37:00,
2013-11-19 02:42:00,23.6,21.1,30.33,SW,218,0.0,1.0,90,0.00,,,0.00,VWS V13.01,2013-11-19 08:42:00,
2013-11-19 02:47:00,23.5,21.3,30.34,SW,218,0.0,1.0,91,0.00,,,0.00,VWS V13.01,2013-11-19 08:47:00,
2013-11-19 02:52:00,23.5,21.3,30.34,SW,218,0.0,1.0,91,0.00,,,0.00,VWS V13.01,2013-11-19 08:52:00,
2013-11-19 02:57:00,23.5,21.3,30.34,SW,218,0.0,1.0,91,0.00,,,0.00,VWS V13.01,2013-11-19 08:57:00,
2013-11-19 03:02:00,23.5,21.3,30.34,SW,218,0.0,0.0,91,0.00,,,0.00,VWS V13.01,2013-11-19 09:02:00,
2013-11-19 03:07:00,23.5,21.3,30.34,SW,218,0.0,0.0,91,0.00,,,0.00,VWS V13.01,2013-11-19 09:07:00,
2013-11-19 03:12:00,23.5,21.3,30.34,SW,218,0.0,0.0,91,0.00,,,0.00,VWS V13.01,2013-11-19 09:12:00,
2013-11-19 03:17:00,23.5,21.3,30.34,SW,218,0.0,0.0,91,0.00,,,0.00,VWS V13.01,2013-11-19 09:17:00,
2013-11-19 03:22:00,23.5,21.3,30.35,SW,218,0.0,0.0,91,0.00,,,0.00,VWS V13.01,2013-11-19 09:22:00,
2013-11-19 03:27:00,23.5,21.3,30.35,SW,218,0.0,0.0,91,0.00,,,0.00,VWS V13.01,2013-11-19 09:27:00,
2013-11-19 03:32:00,23.5,21.3,30.35,SW,218,0.0,0.0,91,0.00,,,0.00,VWS V13.01,2013-11-19 09:32:00,
2013-11-19 03:37:00,23.5,21.3,30.35,SW,218,0.0,0.0,91,0.00,,,0.00,VWS V13.01,2013-11-19 09:37:00,
2013-11-19 03:42:00,23.5,21.3,30.35,SW,218,0.0,0.0,91,0.00,,,0.00,VWS V13.01,2013-11-19 09:42:00,
2013-11-19 03:47:00,23.5,21.3,30.35,SW,218,0.0,0.0,91,0.00,,,0.00,VWS V13.01,2013-11-19 09:47:00,
2013-11-19 03:52:00,23.5,21.3,30.35,SW,218,0.0,0.0,91,0.00,,,0.00,VWS V13.01,2013-11-19 09:52:00,
2013-11-19 03:57:00,23.5,21.3,30.35,SW,218,0.0,0.0,91,0.00,,,0.00,VWS V13.01,2013-11-19 09:57:00,
2013-11-19 04:02:00,23.5,21.3,30.35,SW,218,0.0,0.0,91,0.00,,,0.00,VWS V13.01,2013-11-19 10:02:00,
2013-11-19 04:07:00,22.9,20.9,30.35,SW,218,0.0,0.0,92,0.00,,,0.00,VWS V13.01,2013-11-19 10:07:00,
2013-11-19 04:12:00,22.8,20.8,30.35,South,170,0.0,0.0,92,0.00,,,0.00,VWS V13.01,2013-11-19 10:12:00,
2013-11-19 04:17:00,22.9,20.9,30.35,South,169,0.0,0.0,92,0.00,,,0.00,VWS V13.01,2013-11-19 10:17:00,
2013-11-19 04:22:00,22.9,20.9,30.35,South,170,0.0,0.0,92,0.00,,,0.00,VWS V13.01,2013-11-19 10:22:00,
2013-11-19 04:27:00,22.7,20.7,30.35,South,170,0.0,0.0,92,0.00,,,0.00,VWS V13.01,2013-11-19 10:27:00,
2013-11-19 04:32:00,22.2,20.0,30.35,South,170,0.0,0.0,91,0.00,,,0.00,VWS V13.01,2013-11-19 10:32:00,
2013-11-19 04:37:00,22.1,20.4,30.35,South,170,0.0,0.0,93,0.00,,,0.00,VWS V13.01,2013-11-19 10:37:00,
2013-11-19 04:42:00,22.4,20.7,30.35,South,170,0.0,0.0,93,0.00,,,0.00,VWS V13.01,2013-11-19 10:42:00,
2013-11-19 04:47:00,22.3,20.6,30.35,South,170,0.0,0.0,93,0.00,,,0.00,VWS V13.01,2013-11-19 10:47:00,
2013-11-19 04:52:00,22.8,21.3,30.35,SSE,152,0.0,1.0,94,0.00,,,0.00,VWS V13.01,2013-11-19 10:52:00,
2013-11-19 04:57:00,22.9,20.9,30.35,SSE,152,0.0,1.0,92,0.00,,,0.00,VWS V13.01,2013-11-19 10:57:00,
2013-11-19 05:02:00,22.8,20.8,30.35,SSE,152,0.0,0.0,92,0.00,,,0.00,VWS V13.01,2013-11-19 11:02:00,
2013-11-19 05:07:00,22.4,20.4,30.35,SSE,152,0.0,0.0,92,0.00,,,0.00,VWS V13.01,2013-11-19 11:07:00,
2013-11-19 05:12:00,21.9,19.9,30.35,SSE,153,0.0,0.0,92,0.00,,,0.00,VWS V13.01,2013-11-19 11:12:00,
2013-11-19 05:17:00,21.6,19.9,30.35,SSE,152,0.0,0.0,93,0.00,,,0.00,VWS V13.01,2013-11-19 11:17:00,
2013-11-19 05:22:00,21.8,20.3,30.35,SSE,152,0.0,0.0,94,0.00,,,0.00,VWS V13.01,2013-11-19 11:22:00,
2013-11-19 05:27:00,21.9,20.4,30.35,SSE,152,0.0,0.0,94,0.00,,,0.00,VWS V13.01,2013-11-19 11:27:00,
2013-11-19 05:32:00,22.0,20.5,30.35,SSE,153,0.0,0.0,94,0.00,,,0.00,VWS V13.01,2013-11-19 11:32:00,
2013-11-19 05:37:00,22.4,20.9,30.35,SSE,152,0.0,1.0,94,0.00,,,0.00,VWS V13.01,2013-11-19 11:37:00,
2013-11-19 05:42:00,22.3,20.3,30.35,SSE,152,0.0,1.0,92,0.00,,,0.00,VWS V13.01,2013-11-19 11:42:00,
2013-11-19 05:47:00,22.1,20.4,30.36,SSE,152,0.0,1.0,93,0.00,,,0.00,VWS V13.01,2013-11-19 11:47:00,
2013-11-19 05:52:00,22.0,20.0,30.36,SSE,152,0.0,1.0,92,0.00,,,0.00,VWS V13.01,2013-11-19 11:52:00,
2013-11-19 05:57:00,21.8,19.8,30.36,SSE,153,0.0,1.0,92,0.00,,,0.00,VWS V13.01,2013-11-19 11:57:00,
2013-11-19 06:02:00,21.5,19.5,30.36,SSE,152,0.0,0.0,92,0.00,,,0.00,VWS V13.01,2013-11-19 12:02:00,
2013-11-19 06:07:00,21.1,19.4,30.37,SSE,152,0.0,0.0,93,0.00,,,0.00,VWS V13.01,2013-11-19 12:07:00,
2013-11-19 06:12:00,21.4,19.9,30.37,SSE,152,0.0,0.0,94,0.00,,,0.00,VWS V13.01,2013-11-19 12:12:00,
2013-11-19 06:17:00,21.5,20.0,30.38,SSE,152,0.0,0.0,94,0.00,,,0.00,VWS V13.01,2013-11-19 12:17:00,
2013-11-19 06:22:00,21.6,20.1,30.37,SSE,152,0.0,0.0,94,0.00,,,0.00,VWS V13.01,2013-11-19 12:22:00,
2013-11-19 06:27:00,21.3,19.6,30.38,SSE,152,0.0,0.0,93,0.00,,,0.00,VWS V13.01,2013-11-19 12:27:00,
2013-11-19 06:32:00,21.2,19.8,30.38,SSE,152,0.0,0.0,94,0.00,,,0.00,VWS V13.01,2013-11-19 12:32:00,
2013-11-19 06:37:00,20.9,19.2,30.38,SSE,152,0.0,0.0,93,0.00,,,0.00,VWS V13.01,2013-11-19 12:37:00,
2013-11-19 06:42:00,21.0,19.5,30.38,SSE,153,0.0,0.0,94,0.00,,,0.00,VWS V13.01,2013-11-19 12:42:00,
2013-11-19 06:47:00,21.1,19.9,30.38,SSE,153,0.0,0.0,95,0.00,,,0.00,VWS V13.01,2013-11-19 12:47:00,
2013-11-19 06:52:00,21.0,19.5,30.38,SSE,152,0.0,0.0,94,0.00,,,0.00,VWS V13.01,2013-11-19 12:52:00,
2013-11-19 06:57:00,20.7,19.2,30.38,SSE,152,0.0,0.0,94,0.00,,,0.00,VWS V13.01,2013-11-19 12:57:00,
2013-11-19 07:02:00,20.9,19.7,30.38,SSE,152,0.0,0.0,95,0.00,,,0.00,VWS V13.01,2013-11-19 13:02:00,
2013-11-19 07:07:00,20.8,19.4,30.38,SSE,152,0.0,0.0,94,0.00,,,0.00,VWS V13.01,2013-11-19 13:07:00,
2013-11-19 07:12:00,21.3,20.1,30.38,SSE,152,0.0,0.0,95,0.00,,,0.00,VWS V13.01,2013-11-19 13:12:00,
2013-11-19 07:17:00,22.1,20.9,30.37,SSE,152,0.0,0.0,95,0.00,,,0.00,VWS V13.01,2013-11-19 13:17:00,
2013-11-19 07:22:00,22.7,21.2,30.37,SSE,152,0.0,0.0,94,0.00,,,0.00,VWS V13.01,2013-11-19 13:22:00,
2013-11-19 07:27:00,23.5,22.0,30.37,SSE,152,0.0,0.0,94,0.00,,,0.00,VWS V13.01,2013-11-19 13:27:00,
2013-11-19 07:32:00,23.8,21.6,30.38,SSE,152,0.0,0.0,91,0.00,,,0.00,VWS V13.01,2013-11-19 13:32:00,
2013-11-19 07:37:00,24.9,23.2,30.38,SSE,153,0.0,0.0,93,0.00,,,0.00,VWS V13.01,2013-11-19 13:37:00,
2013-11-19 07:42:00,25.9,23.9,30.38,SSE,152,0.0,0.0,92,0.00,,,0.00,VWS V13.01,2013-11-19 13:42:00,
2013-11-19 07:47:00,27.1,24.6,30.38,SSE,152,0.0,0.0,90,0.00,,,0.00,VWS V13.01,2013-11-19 13:47:00,
2013-11-19 07:52:00,26.7,23.1,30.38,SSE,152,0.0,0.0,86,0.00,,,0.00,VWS V13.01,2013-11-19 13:52:00,
2013-11-19 07:57:00,26.5,23.2,30.38,SSE,153,0.0,0.0,87,0.00,,,0.00,VWS V13.01,2013-11-19 13:57:00,
2013-11-19 08:02:00,26.9,23.6,30.38,SSE,152,0.0,0.0,87,0.00,,,0.00,VWS V13.01,2013-11-19 14:02:00,
2013-11-19 08:07:00,27.2,23.3,30.38,SSE,152,0.0,0.0,85,0.00,,,0.00,VWS V13.01,2013-11-19 14:07:00,
2013-11-19 08:12:00,27.4,23.2,30.38,SSE,153,0.0,0.0,84,0.00,,,0.00,VWS V13.01,2013-11-19 14:12:00,
2013-11-19 08:17:00,27.8,23.6,30.38,SSE,152,0.0,0.0,84,0.00,,,0.00,VWS V13.01,2013-11-19 14:17:00,
2013-11-19 08:22:00,28.3,23.5,30.38,SSE,152,0.0,1.0,82,0.00,,,0.00,VWS V13.01,2013-11-19 14:22:00,
2013-11-19 08:27:00,28.8,23.7,30.38,SSE,152,0.0,1.0,81,0.00,,,0.00,VWS V13.01,2013-11-19 14:27:00,
2013-11-19 08:28:00,28.9,23.8,30.38,North,11,1.0,2.0,81,0.00,,,0.00,VWS V13.01,2013-11-19 14:28:00,
2013-11-19 08:33:00,29.4,23.7,30.38,East,80,4.0,5.0,79,0.00,,,0.00,VWS V13.01,2013-11-19 14:33:00,
2013-11-19 08:38:00,29.5,23.5,30.38,NE,41,2.0,5.0,78,0.00,,,0.00,VWS V13.01,2013-11-19 14:38:00,
2013-11-19 08:43:00,29.4,23.4,30.38,ENE,65,3.0,5.0,78,0.00,,,0.00,VWS V13.01,2013-11-19 14:43:00,
2013-11-19 08:48:00,29.6,23.3,30.38,ESE,110,1.0,5.0,77,0.00,,,0.00,VWS V13.01,2013-11-19 14:48:00,
2013-11-19 08:53:00,30.0,23.7,30.38,ESE,116,1.0,5.0,77,0.00,,,0.00,VWS V13.01,2013-11-19 14:53:00,
2013-11-19 08:58:00,30.2,23.2,30.38,East,82,2.0,5.0,75,0.00,,,0.00,VWS V13.01,2013-11-19 14:58:00,
2013-11-19 09:03:00,30.4,23.4,30.38,NE,56,3.0,3.0,75,0.00,,,0.00,VWS V13.01,2013-11-19 15:03:00,
2013-11-19 09:08:00,30.3,23.3,30.39,ENE,70,1.0,4.0,75,0.00,,,0.00,VWS V13.01,2013-11-19 15:08:00,
2013-11-19 09:13:00,30.6,24.0,30.39,NE,48,2.0,4.0,76,0.00,,,0.00,VWS V13.01,2013-11-19 15:13:00,
2013-11-19 09:18:00,30.6,23.6,30.39,East,101,3.0,6.0,75,0.00,,,0.00,VWS V13.01,2013-11-19 15:18:00,
2013-11-19 09:23:00,30.6,23.3,30.39,East,83,5.0,7.0,74,0.00,,,0.00,VWS V13.01,2013-11-19 15:23:00,
2013-11-19 09:28:00,30.6,23.6,30.39,SE,131,2.0,7.0,75,0.00,,,0.00,VWS V13.01,2013-11-19 15:28:00,
2013-11-19 09:33:00,31.0,24.0,30.39,East,80,1.0,6.0,75,0.00,,,0.00,VWS V13.01,2013-11-19 15:33:00,
2013-11-19 09:38:00,30.9,23.9,30.39,ENE,73,2.0,6.0,75,0.00,,,0.00,VWS V13.01,2013-11-19 15:38:00,
2013-11-19 09:43:00,31.1,23.8,30.39,SSE,152,5.0,7.0,74,0.00,,,0.00,VWS V13.01,2013-11-19 15:43:00,
2013-11-19 09:48:00,31.4,24.4,30.39,East,101,3.0,7.0,75,0.00,,,0.00,VWS V13.01,2013-11-19 15:48:00,
2013-11-19 09:53:00,31.6,24.6,30.39,ESE,122,2.0,7.0,75,0.00,,,0.00,VWS V13.01,2013-11-19 15:53:00,
2013-11-19 09:58:00,31.8,24.1,30.39,East,86,4.0,7.0,73,0.00,,,0.00,VWS V13.01,2013-11-19 15:58:00,
2013-11-19 10:03:00,31.8,24.1,30.39,SE,141,3.0,6.0,73,0.00,,,0.00,VWS V13.01,2013-11-19 16:03:00,
2013-11-19 10:08:00,32.0,24.3,30.39,SE,136,5.0,6.0,73,0.00,,,0.00,VWS V13.01,2013-11-19 16:08:00,
2013-11-19 10:13:00,32.5,24.5,30.39,East,101,1.0,6.0,72,0.00,,,0.00,VWS V13.01,2013-11-19 16:13:00,
2013-11-19 10:18:00,32.7,24.7,30.39,ESE,108,3.0,6.0,72,0.00,,,0.00,VWS V13.01,2013-11-19 16:18:00,
2013-11-19 10:23:00,32.8,24.8,30.39,ENE,74,4.0,6.0,72,0.00,,,0.00,VWS V13.01,2013-11-19 16:23:00,
2013-11-19 10:28:00,32.9,24.5,30.38,East,84,2.0,6.0,71,0.00,,,0.00,VWS V13.01,2013-11-19 16:28:00,
2013-11-19 10:33:00,32.9,24.5,30.38,ESE,115,5.0,7.0,71,0.00,,,0.00,VWS V13.01,2013-11-19 16:33:00,
2013-11-19 10:38:00,33.1,24.7,30.38,SE,139,2.0,8.0,71,0.00,,,0.00,VWS V13.01,2013-11-19 16:38:00,
2013-11-19 10:43:00,33.5,25.5,30.38,SSE,163,3.0,8.0,72,0.00,,,0.00,VWS V13.01,2013-11-19 16:43:00,
2013-11-19 10:48:00,33.6,24.9,30.38,ENE,60,1.0,8.0,70,0.00,,,0.00,VWS V13.01,2013-11-19 16:48:00,
2013-11-19 10:52:00,33.7,25.3,30.38,NE,55,5.0,8.0,71,0.00,,,0.00,VWS V13.01,2013-11-19 16:52:00,
2013-11-19 10:57:00,33.8,24.4,30.38,ESE,121,7.0,8.0,68,0.00,,,0.00,VWS V13.01,2013-11-19 16:57:00,
2013-11-19 11:02:00,34.0,24.9,30.37,ENE,70,3.0,5.0,69,0.00,,,0.00,VWS V13.01,2013-11-19 17:02:00,
2013-11-19 11:07:00,34.2,24.4,30.37,ESE,110,4.0,7.0,67,0.00,,,0.00,VWS V13.01,2013-11-19 17:07:00,
2013-11-19 11:12:00,34.4,25.0,30.37,East,98,5.0,7.0,68,0.00,,,0.00,VWS V13.01,2013-11-19 17:12:00,
2013-11-19 11:17:00,34.7,24.9,30.37,ESE,115,4.0,7.0,67,0.00,,,0.00,VWS V13.01,2013-11-19 17:17:00,
2013-11-19 11:22:00,35.0,25.5,30.36,SE,139,3.0,7.0,68,0.00,,,0.00,VWS V13.01,2013-11-19 17:22:00,
2013-11-19 11:27:00,35.0,25.2,30.36,ENE,58,4.0,8.0,67,0.00,,,0.00,VWS V13.01,2013-11-19 17:27:00,
2013-11-19 11:32:00,35.0,24.8,30.36,NE,49,3.0,7.0,66,0.00,,,0.00,VWS V13.01,2013-11-19 17:32:00,
2013-11-19 11:35:00,35.1,24.9,30.36,East,101,6.0,9.0,66,0.00,,,0.00,VWS V13.01,2013-11-19 17:35:00,
2013-11-19 11:40:00,35.1,24.9,30.35,SE,124,3.0,9.0,66,0.00,,,0.00,VWS V13.01,2013-11-19 17:40:00,
2013-11-19 11:45:00,35.3,25.5,30.35,East,91,4.0,9.0,67,0.00,,,0.00,VWS V13.01,2013-11-19 17:45:00,
2013-11-19 11:50:00,35.9,25.7,30.35,East,84,4.0,9.0,66,0.00,,,0.00,VWS V13.01,2013-11-19 17:50:00,
2013-11-19 11:55:00,35.9,25.7,30.35,SSE,156,2.0,9.0,66,0.00,,,0.00,VWS V13.01,2013-11-19 17:55:00,
2013-11-19 12:00:00,36.1,25.1,30.35,ENE,77,4.0,9.0,64,0.00,,,0.00,VWS V13.01,2013-11-19 18:00:00,
2013-11-19 12:05:00,36.0,25.4,30.35,ESE,104,4.0,8.0,65,0.00,,,0.00,VWS V13.01,2013-11-19 18:05:00,
2013-11-19 12:10:00,36.3,25.7,30.35,East,99,3.0,9.0,65,0.00,,,0.00,VWS V13.01,2013-11-19 18:10:00,
2013-11-19 12:15:00,36.6,26.3,30.35,SSE,151,1.0,9.0,66,0.00,,,0.00,VWS V13.01,2013-11-19 18:15:00,
2013-11-19 12:20:00,37.3,27.0,30.35,South,170,1.0,9.0,66,0.00,,,0.00,VWS V13.01,2013-11-19 18:20:00,
2013-11-19 12:25:00,37.6,26.2,30.35,ENE,68,2.0,9.0,63,0.00,,,0.00,VWS V13.01,2013-11-19 18:25:00,
2013-11-19 12:30:00,37.5,26.8,30.34,ENE,60,2.0,9.0,65,0.00,,,0.00,VWS V13.01,2013-11-19 18:30:00,
2013-11-19 12:35:00,37.7,26.6,30.34,South,174,3.0,6.0,64,0.00,,,0.00,VWS V13.01,2013-11-19 18:35:00,
2013-11-19 12:40:00,38.0,26.5,30.34,SW,224,0.0,6.0,63,0.00,,,0.00,VWS V13.01,2013-11-19 18:40:00,
2013-11-19 12:45:00,38.1,25.5,30.34,SSE,159,3.0,8.0,60,0.00,,,0.00,VWS V13.01,2013-11-19 18:45:00,
2013-11-19 12:50:00,38.0,26.1,30.34,East,91,3.0,8.0,62,0.00,,,0.00,VWS V13.01,2013-11-19 18:50:00,
2013-11-19 12:55:00,37.9,25.7,30.33,ENE,68,3.0,8.0,61,0.00,,,0.00,VWS V13.01,2013-11-19 18:55:00,
2013-11-19 13:00:00,38.3,25.6,30.33,SSE,167,2.0,8.0,60,0.00,,,0.00,VWS V13.01,2013-11-19 19:00:00,
2013-11-19 13:05:00,38.4,25.7,30.33,ESE,118,3.0,6.0,60,0.00,,,0.00,VWS V13.01,2013-11-19 19:05:00,
2013-11-19 13:10:00,38.9,26.2,30.33,ESE,113,2.0,6.0,60,0.00,,,0.00,VWS V13.01,2013-11-19 19:10:00,
2013-11-19 13:15:00,38.9,26.2,30.33,WSW,246,0.0,6.0,60,0.00,,,0.00,VWS V13.01,2013-11-19 19:15:00,
2013-11-19 13:20:00,39.3,27.0,30.33,SSE,149,2.0,6.0,61,0.00,,,0.00,VWS V13.01,2013-11-19 19:20:00,
2013-11-19 13:25:00,39.5,27.6,30.33,SSE,165,1.0,6.0,62,0.00,,,0.00,VWS V13.01,2013-11-19 19:25:00,
2013-11-19 13:30:00,39.6,27.7,30.32,SW,221,2.0,3.0,62,0.00,,,0.00,VWS V13.01,2013-11-19 19:30:00,
2013-11-19 13:35:00,39.9,27.2,30.32,SSW,201,0.0,6.0,60,0.00,,,0.00,VWS V13.01,2013-11-19 19:35:00,
2013-11-19 13:40:00,39.8,27.1,30.32,SSE,148,3.0,8.0,60,0.00,,,0.00,VWS V13.01,2013-11-19 19:40:00,
2013-11-19 13:45:00,39.7,27.0,30.32,SSE,158,4.0,8.0,60,0.00,,,0.00,VWS V13.01,2013-11-19 19:45:00,
2013-11-19 13:50:00,39.8,26.7,30.32,East,89,3.0,8.0,59,0.00,,,0.00,VWS V13.01,2013-11-19 19:50:00,
2013-11-19 13:55:00,39.8,27.1,30.32,South,172,6.0,8.0,60,0.00,,,0.00,VWS V13.01,2013-11-19 19:55:00,
2013-11-19 14:00:00,39.7,27.0,30.32,SE,134,2.0,3.0,60,0.00,,,0.00,VWS V13.01,2013-11-19 20:00:00,
2013-11-19 14:05:00,40.2,27.4,30.32,SW,236,4.0,6.0,60,0.00,,,0.00,VWS V13.01,2013-11-19 20:05:00,
2013-11-19 14:10:00,40.3,27.5,30.32,SE,145,2.0,6.0,60,0.00,,,0.00,VWS V13.01,2013-11-19 20:10:00,
2013-11-19 14:15:00,40.5,27.3,30.32,ESE,118,2.0,6.0,59,0.00,,,0.00,VWS V13.01,2013-11-19 20:15:00,
2013-11-19 14:20:00,40.7,27.5,30.32,ENE,63,3.0,6.0,59,0.00,,,0.00,VWS V13.01,2013-11-19 20:20:00,
2013-11-19 14:25:00,40.6,27.8,30.32,SSE,167,2.0,6.0,60,0.00,,,0.00,VWS V13.01,2013-11-19 20:25:00,
2013-11-19 14:30:00,40.8,27.6,30.32,SSW,196,2.0,2.0,59,0.00,,,0.00,VWS V13.01,2013-11-19 20:30:00,
2013-11-19 14:35:00,40.8,27.6,30.31,SSE,161,3.0,5.0,59,0.00,,,0.00,VWS V13.01,2013-11-19 20:35:00,
2013-11-19 14:40:00,40.5,27.3,30.31,SSW,194,1.0,6.0,59,0.00,,,0.00,VWS V13.01,2013-11-19 20:40:00,
2013-11-19 14:45:00,40.5,27.3,30.31,SE,145,5.0,8.0,59,0.00,,,0.00,VWS V13.01,2013-11-19 20:45:00,
2013-11-19 14:50:00,40.4,26.8,30.31,ESE,122,3.0,8.0,58,0.00,,,0.00,VWS V13.01,2013-11-19 20:50:00,
2013-11-19 14:55:00,40.4,26.8,30.31,SE,136,2.0,8.0,58,0.00,,,0.00,VWS V13.01,2013-11-19 20:55:00,
2013-11-19 15:00:00,40.1,26.9,30.31,SE,134,3.0,9.0,59,0.00,,,0.00,VWS V13.01,2013-11-19 21:00:00,
2013-11-19 15:05:00,40.1,26.9,30.31,SSE,154,8.0,8.0,59,0.00,,,0.00,VWS V13.01,2013-11-19 21:05:00,
2013-11-19 15:10:00,40.1,27.4,30.31,East,98,3.0,9.0,60,0.00,,,0.00,VWS V13.01,2013-11-19 21:10:00,
2013-11-19 15:15:00,40.1,27.4,30.31,SE,129,3.0,9.0,60,0.00,,,0.00,VWS V13.01,2013-11-19 21:15:00,
2013-11-19 15:20:00,39.8,26.7,30.31,ESE,108,4.0,11.0,59,0.00,,,0.00,VWS V13.01,2013-11-19 21:20:00,
2013-11-19 15:25:00,39.6,26.9,30.31,SSE,148,2.0,11.0,60,0.00,,,0.00,VWS V13.01,2013-11-19 21:25:00,
2013-11-19 15:30:00,39.4,27.1,30.31,SSE,150,6.0,11.0,61,0.00,,,0.00,VWS V13.01,2013-11-19 21:30:00,
2013-11-19 15:35:00,39.3,27.4,30.31,ESE,123,2.0,7.0,62,0.00,,,0.00,VWS V13.01,2013-11-19 21:35:00,
2013-11-19 15:40:00,39.1,27.6,30.31,ESE,116,5.0,7.0,63,0.00,,,0.00,VWS V13.01,2013-11-19 21:40:00,
2013-11-19 15:45:00,38.8,27.7,30.31,SE,143,3.0,8.0,64,0.00,,,0.00,VWS V13.01,2013-11-19 21:45:00,
2013-11-19 15:50:00,38.6,27.9,30.31,SE,127,3.0,8.0,65,0.00,,,0.00,VWS V13.01,2013-11-19 21:50:00,
2013-11-19 15:55:00,38.3,27.6,30.31,SSE,158,6.0,12.0,65,0.00,,,0.00,VWS V13.01,2013-11-19 21:55:00,
2013-11-19 16:00:00,38.0,27.3,30.31,SE,146,4.0,12.0,65,0.00,,,0.00,VWS V13.01,2013-11-19 22:00:00,
2013-11-19 16:05:00,37.8,27.5,30.31,SE,143,4.0,11.0,66,0.00,,,0.00,VWS V13.01,2013-11-19 22:05:00,
2013-11-19 16:10:00,37.6,27.3,30.31,ESE,118,5.0,11.0,66,0.00,,,0.00,VWS V13.01,2013-11-19 22:10:00,
2013-11-19 16:15:00,37.5,27.5,30.31,ESE,112,3.0,11.0,67,0.00,,,0.00,VWS V13.01,2013-11-19 22:15:00,
2013-11-19 16:20:00,37.2,27.6,30.31,SE,128,2.0,11.0,68,0.00,,,0.00,VWS V13.01,2013-11-19 22:20:00,
2013-11-19 16:25:00,37.0,27.8,30.31,ESE,115,2.0,11.0,69,0.00,,,0.00,VWS V13.01,2013-11-19 22:25:00,
2013-11-19 16:30:00,36.8,27.6,30.31,ESE,118,6.0,11.0,69,0.00,,,0.00,VWS V13.01,2013-11-19 22:30:00,
2013-11-19 16:35:00,36.6,27.8,30.31,SE,139,1.0,6.0,70,0.00,,,0.00,VWS V13.01,2013-11-19 22:35:00,
2013-11-19 16:40:00,36.3,27.8,30.31,ESE,121,1.0,6.0,71,0.00,,,0.00,VWS V13.01,2013-11-19 22:40:00,
2013-11-19 16:45:00,36.1,28.0,30.31,South,177,3.0,6.0,72,0.00,,,0.00,VWS V13.01,2013-11-19 22:45:00,
2013-11-19 16:50:00,35.9,28.1,30.31,SE,129,6.0,7.0,73,0.00,,,0.00,VWS V13.01,2013-11-19 22:50:00,
2013-11-19 16:55:00,35.8,28.0,30.31,SE,127,4.0,7.0,73,0.00,,,0.00,VWS V13.01,2013-11-19 22:55:00,
2013-11-19 17:00:00,35.6,28.1,30.30,SSE,150,3.0,7.0,74,0.00,,,0.00,VWS V13.01,2013-11-19 23:00:00,
2013-11-19 17:05:00,35.5,28.0,30.31,SE,129,0.0,5.0,74,0.00,,,0.00,VWS V13.01,2013-11-19 23:05:00,
2013-11-19 17:10:00,35.4,28.0,30.30,SE,127,3.0,6.0,74,0.00,,,0.00,VWS V13.01,2013-11-19 23:10:00,
2013-11-19 17:15:00,35.3,27.9,30.30,SE,139,4.0,8.0,74,0.00,,,0.00,VWS V13.01,2013-11-19 23:15:00,
2013-11-19 17:20:00,35.2,28.1,30.30,SE,144,2.0,8.0,75,0.00,,,0.00,VWS V13.01,2013-11-19 23:20:00,
2013-11-19 17:25:00,35.1,28.0,30.30,SE,129,2.0,8.0,75,0.00,,,0.00,VWS V13.01,2013-11-19 23:25:00,
2013-11-19 17:30:00,35.0,28.2,30.30,ESE,121,6.0,8.0,76,0.00,,,0.00,VWS V13.01,2013-11-19 23:30:00,
2013-11-19 17:35:00,34.9,28.1,30.30,SSE,149,4.0,7.0,76,0.00,,,0.00,VWS V13.01,2013-11-19 23:35:00,
2013-11-19 17:40:00,34.8,28.0,30.30,SE,127,4.0,7.0,76,0.00,,,0.00,VWS V13.01,2013-11-19 23:40:00,
2013-11-19 17:45:00,34.7,27.9,30.30,ESE,113,6.0,7.0,76,0.00,,,0.00,VWS V13.01,2013-11-19 23:45:00,
2013-11-19 17:50:00,34.6,28.1,30.30,SSE,158,3.0,7.0,77,0.00,,,0.00,VWS V13.01,2013-11-19 23:50:00,
2013-11-19 17:55:00,34.4,28.0,30.30,ESE,116,5.0,7.0,77,0.00,,,0.00,VWS V13.01,2013-11-19 23:55:00,
2013-11-19 18:00:00,34.4,28.0,30.30,SE,142,2.0,7.0,77,0.00,,,0.00,VWS V13.01,2013-11-20 00:00:00,
2013-11-19 18:05:00,34.3,27.9,30.31,SE,136,3.0,6.0,77,0.00,,,0.00,VWS V13.01,2013-11-20 00:05:00,
2013-11-19 18:10:00,34.2,27.8,30.31,SSE,150,2.0,6.0,77,0.00,,,0.00,VWS V13.01,2013-11-20 00:10:00,
2013-11-19 18:15:00,34.1,28.0,30.30,South,169,2.0,6.0,78,0.00,,,0.00,VWS V13.01,2013-11-20 00:15:00,
2013-11-19 18:20:00,34.1,28.0,30.30,SE,130,2.0,6.0,78,0.00,,,0.00,VWS V13.01,2013-11-20 00:20:00,
2013-11-19 18:25:00,34.0,27.9,30.30,SE,139,4.0,6.0,78,0.00,,,0.00,VWS V13.01,2013-11-20 00:25:00,
2013-11-19 18:30:00,33.9,27.8,30.30,SSE,158,1.0,6.0,78,0.00,,,0.00,VWS V13.01,2013-11-20 00:30:00,
2013-11-19 18:35:00,33.8,28.0,30.30,SE,127,2.0,4.0,79,0.00,,,0.00,VWS V13.01,2013-11-20 00:35:00,
2013-11-19 18:40:00,33.8,28.0,30.30,ESE,118,3.0,6.0,79,0.00,,,0.00,VWS V13.01,2013-11-20 00:40:00,
2013-11-19 18:45:00,33.7,27.9,30.30,SE,135,3.0,7.0,79,0.00,,,0.00,VWS V13.01,2013-11-20 00:45:00,
2013-11-19 18:50:00,33.6,27.8,30.30,SE,131,3.0,7.0,79,0.00,,,0.00,VWS V13.01,2013-11-20 00:50:00,
2013-11-19 18:55:00,33.6,27.8,30.30,SE,127,1.0,7.0,79,0.00,,,0.00,VWS V13.01,2013-11-20 00:55:00,
2013-11-19 19:00:00,33.6,28.1,30.30,ESE,113,3.0,7.0,80,0.00,,,0.00,VWS V13.01,2013-11-20 01:00:00,
2013-11-19 19:05:00,33.4,27.9,30.30,ESE,118,4.0,5.0,80,0.00,,,0.00,VWS V13.01,2013-11-20 01:05:00,
2013-11-19 19:10:00,33.3,27.8,30.30,SE,129,2.0,6.0,80,0.00,,,0.00,VWS V13.01,2013-11-20 01:10:00,
2013-11-19 19:15:00,33.3,27.8,30.30,SE,146,1.0,6.0,80,0.00,,,0.00,VWS V13.01,2013-11-20 01:15:00,
2013-11-19 19:20:00,33.2,28.0,30.30,SE,141,2.0,6.0,81,0.00,,,0.00,VWS V13.01,2013-11-20 01:20:00,
2013-11-19 19:25:00,33.1,27.9,30.30,SE,131,2.0,6.0,81,0.00,,,0.00,VWS V13.01,2013-11-20 01:25:00,
2013-11-19 19:30:00,33.0,27.8,30.30,SE,142,3.0,7.0,81,0.00,,,0.00,VWS V13.01,2013-11-20 01:30:00,
2013-11-19 19:35:00,32.9,28.0,30.29,SE,143,4.0,4.0,82,0.00,,,0.00,VWS V13.01,2013-11-20 01:35:00,
2013-11-19 19:40:00,32.8,27.9,30.30,SE,135,2.0,5.0,82,0.00,,,0.00,VWS V13.01,2013-11-20 01:40:00,
2013-11-19 19:45:00,32.7,27.8,30.30,SE,137,2.0,5.0,82,0.00,,,0.00,VWS V13.01,2013-11-20 01:45:00,
2013-11-19 19:50:00,32.5,27.9,30.30,ESE,120,4.0,5.0,83,0.00,,,0.00,VWS V13.01,2013-11-20 01:50:00,
2013-11-19 19:55:00,32.4,27.8,30.30,ESE,121,3.0,5.0,83,0.00,,,0.00,VWS V13.01,2013-11-20 01:55:00,
2013-11-19 20:00:00,32.3,27.7,30.30,SE,131,1.0,5.0,83,0.00,,,0.00,VWS V13.01,2013-11-20 02:00:00,
2013-11-19 20:05:00,32.1,27.8,30.29,SE,124,3.0,5.0,84,0.00,,,0.00,VWS V13.01,2013-11-20 02:05:00,
2013-11-19 20:10:00,32.1,27.8,30.29,SSE,149,2.0,5.0,84,0.00,,,0.00,VWS V13.01,2013-11-20 02:10:00,
2013-11-19 20:15:00,32.0,27.7,30.29,SSE,155,2.0,5.0,84,0.00,,,0.00,VWS V13.01,2013-11-20 02:15:00,
2013-11-19 20:20:00,31.9,27.9,30.29,ESE,111,5.0,7.0,85,0.00,,,0.00,VWS V13.01,2013-11-20 02:20:00,
2013-11-19 20:25:00,31.9,27.9,30.29,SE,130,3.0,7.0,85,0.00,,,0.00,VWS V13.01,2013-11-20 02:25:00,
2013-11-19 20:30:00,31.8,27.8,30.29,SE,132,1.0,7.0,85,0.00,,,0.00,VWS V13.01,2013-11-20 02:30:00,
2013-11-19 20:35:00,31.8,27.8,30.29,SE,131,6.0,6.0,85,0.00,,,0.00,VWS V13.01,2013-11-20 02:35:00,
2013-11-19 20:40:00,31.8,28.1,30.29,ESE,121,2.0,6.0,86,0.00,,,0.00,VWS V13.01,2013-11-20 02:40:00,
2013-11-19 20:45:00,31.8,28.1,30.29,SE,131,1.0,6.0,86,0.00,,,0.00,VWS V13.01,2013-11-20 02:45:00,
2013-11-19 20:50:00,31.7,28.0,30.29,SE,136,5.0,6.0,86,0.00,,,0.00,VWS V13.01,2013-11-20 02:50:00,
2013-11-19 20:55:00,31.7,28.0,30.29,ESE,117,4.0,6.0,86,0.00,,,0.00,VWS V13.01,2013-11-20 02:55:00,
2013-11-19 21:00:00,31.6,28.2,30.29,SSE,158,3.0,6.0,87,0.00,,,0.00,VWS V13.01,2013-11-20 03:00:00,
2013-11-19 21:05:00,31.5,28.1,30.29,ESE,110,4.0,5.0,87,0.00,,,0.00,VWS V13.01,2013-11-20 03:05:00,
2013-11-19 21:10:00,31.5,28.1,30.29,East,98,1.0,6.0,87,0.00,,,0.00,VWS V13.01,2013-11-20 03:10:00,
2013-11-19 21:15:00,31.4,28.0,30.29,SE,125,5.0,6.0,87,0.00,,,0.00,VWS V13.01,2013-11-20 03:15:00,
2013-11-19 21:20:00,31.4,28.0,30.29,ESE,116,3.0,6.0,87,0.00,,,0.00,VWS V13.01,2013-11-20 03:20:00,
2013-11-19 21:25:00,31.3,27.9,30.29,ESE,117,3.0,7.0,87,0.00,,,0.00,VWS V13.01,2013-11-20 03:25:00,
2013-11-19 21:30:00,31.1,27.7,30.28,ESE,113,5.0,7.0,87,0.00,,,0.00,VWS V13.01,2013-11-20 03:30:00,
2013-11-19 21:35:00,31.0,27.9,30.28,SE,132,4.0,7.0,88,0.00,,,0.00,VWS V13.01,2013-11-20 03:35:00,
2013-11-19 21:40:00,31.1,28.0,30.28,East,81,3.0,7.0,88,0.00,,,0.00,VWS V13.01,2013-11-20 03:40:00,
2013-11-19 21:45:00,31.2,28.1,30.28,East,98,6.0,8.0,88,0.00,,,0.00,VWS V13.01,2013-11-20 03:45:00,
2013-11-19 21:50:00,31.2,28.1,30.28,ESE,120,4.0,8.0,88,0.00,,,0.00,VWS V13.01,2013-11-20 03:50:00,
2013-11-19 21:55:00,31.3,28.2,30.28,SSE,162,3.0,8.0,88,0.00,,,0.00,VWS V13.01,2013-11-20 03:55:00,
2013-11-19 22:00:00,31.4,28.3,30.28,ENE,74,4.0,10.0,88,0.00,,,0.00,VWS V13.01,2013-11-20 04:00:00,
2013-11-19 22:05:00,31.4,28.3,30.28,East,96,3.0,9.0,88,0.00,,,0.00,VWS V13.01,2013-11-20 04:05:00,
2013-11-19 22:10:00,31.3,28.2,30.28,ESE,120,6.0,9.0,88,0.00,,,0.00,VWS V13.01,2013-11-20 04:10:00,
2013-11-19 22:15:00,31.2,28.1,30.28,East,87,2.0,9.0,88,0.00,,,0.00,VWS V13.01,2013-11-20 04:15:00,
2013-11-19 22:20:00,31.1,28.2,30.28,East,91,5.0,9.0,89,0.00,,,0.00,VWS V13.01,2013-11-20 04:20:00,
2013-11-19 22:25:00,31.1,28.2,30.28,SE,132,3.0,9.0,89,0.00,,,0.00,VWS V13.01,2013-11-20 04:25:00,
2013-11-19 22:30:00,31.0,28.1,30.28,ESE,115,3.0,9.0,89,0.00,,,0.00,VWS V13.01,2013-11-20 04:30:00,
2013-11-19 22:35:00,31.0,28.4,30.28,East,84,2.0,8.0,90,0.00,,,0.00,VWS V13.01,2013-11-20 04:35:00,
2013-11-19 22:40:00,31.0,28.4,30.28,SE,131,3.0,8.0,90,0.00,,,0.00,VWS V13.01,2013-11-20 04:40:00,
2013-11-19 22:45:00,31.1,28.5,30.28,SE,134,2.0,8.0,90,0.00,,,0.00,VWS V13.01,2013-11-20 04:45:00,
2013-11-19 22:50:00,31.2,28.6,30.28,SE,131,2.0,8.0,90,0.00,,,0.00,VWS V13.01,2013-11-20 04:50:00,
2013-11-19 22:55:00,31.2,28.6,30.28,ESE,117,5.0,8.0,90,0.00,,,0.00,VWS V13.01,2013-11-20 04:55:00,
2013-11-19 23:00:00,31.3,28.7,30.28,SE,129,2.0,8.0,90,0.00,,,0.00,VWS V13.01,2013-11-20 05:00:00,
2013-11-19 23:01:00,31.3,28.7,30.29,South,172,2.0,2.0,90,0.00,,,0.00,VWS V13.01,2013-11-20 05:01:00,
2013-11-19 23:06:00,31.4,28.8,30.29,SSE,165,2.0,6.0,90,0.00,,,0.00,VWS V13.01,2013-11-20 05:06:00,
2013-11-19 23:11:00,31.4,28.8,30.29,SE,136,4.0,6.0,90,0.00,,,0.00,VWS V13.01,2013-11-20 05:11:00,
2013-11-19 23:16:00,31.4,28.8,30.29,ESE,113,3.0,6.0,90,0.00,,,0.00,VWS V13.01,2013-11-20 05:16:00,
2013-11-19 23:21:00,31.3,28.7,30.29,ESE,113,3.0,6.0,90,0.00,,,0.00,VWS V13.01,2013-11-20 05:21:00,
2013-11-19 23:26:00,31.4,28.8,30.28,SE,132,2.0,7.0,90,0.00,,,0.00,VWS V13.01,2013-11-20 05:26:00,
2013-11-19 23:31:00,31.4,28.8,30.28,SSE,150,4.0,4.0,90,0.00,,,0.00,VWS V13.01,2013-11-20 05:31:00,
2013-11-19 23:36:00,31.5,28.9,30.28,ESE,118,6.0,7.0,90,0.00,,,0.00,VWS V13.01,2013-11-20 05:36:00,
2013-11-19 23:41:00,31.5,28.9,30.28,SE,143,6.0,7.0,90,0.00,,,0.00,VWS V13.01,2013-11-20 05:41:00,
2013-11-19 23:46:00,31.6,29.0,30.28,SSE,156,2.0,7.0,90,0.00,,,0.00,VWS V13.01,2013-11-20 05:46:00,
2013-11-19 23:51:00,31.5,28.9,30.29,SSE,153,3.0,7.0,90,0.00,,,0.00,VWS V13.01,2013-11-20 05:51:00,
2013-11-19 23:56:00,31.4,28.8,30.29,SE,145,6.0,7.0,90,0.00,,,0.00,VWS V13.01,2013-11-20 05:56:00,